Date String (YYYY-MM-DD hh:mm:ss) UTC,Instrument flags,absolute air pressure of the measurement (hPa),sample flow rate (lpm),inlet stack bypass flow (lpm),air temperature of the measurement (°C),ambient temperature measured by the external sensor (°C),aerosol sample conditioner tube jacket temperature (°C),OPC LED temperature (°C),internal box temperature (°C),relative humidity of the measurement (%),span deviation,mass concentration of particles derived from Lorenz-Mie calculation of OPC scattering (μg/m³),mass concentration of particles derived from Lorenz-Mie calculation of OPC scattering (μg/m³),mass concentration of particles derived from Lorenz-Mie calculation of OPC scattering (μg/m³)
DateTimeUTC,F1_M11,P_M11,Q1_M11,Q2_M11,T1_M11,T2_M11,T3_M11,T4_M11,T5_M11,U1_M11,ZSPAN_M11,X0_M11,X2_M11,X1_M11
2023-09-12 12:00:00,SystemResetWarning,0835.1,4.99,000.00,028.8,027.3,000.0,037.2,030.2,27.9,-000.9,0012.03,0007.68,0007.08
2023-09-12 12:01:00,SystemResetWarning,0835.0,5.00,000.00,028.8,027.3,000.0,037.2,030.2,27.8,-001.1,0012.08,0007.70,0007.09
2023-09-12 12:02:00,SystemResetWarning,0835.1,5.01,000.00,028.8,027.2,000.0,037.2,030.2,27.8,-000.9,0012.34,0007.73,0007.11
2023-09-12 12:03:00,SystemResetWarning,0835.1,5.00,000.00,028.8,027.2,000.0,037.2,030.2,27.8,-000.7,0012.42,0007.79,0007.14
2023-09-12 12:04:00,SystemResetWarning,0835.0,5.00,000.00,028.7,027.2,000.0,037.2,030.2,27.8,-000.5,0012.37,0007.80,0007.16
2023-09-12 12:05:00,SystemResetWarning,0835.1,5.00,000.00,028.8,027.2,000.0,037.2,030.2,27.8,-000.5,0012.46,0007.86,0007.19
2023-09-12 12:06:00,SystemResetWarning,0835.0,4.99,000.00,028.8,027.2,000.0,037.2,030.3,27.7,-000.4,0012.20,0007.88,0007.22
2023-09-12 12:07:00,SystemResetWarning,0835.0,5.00,000.00,028.8,027.2,000.0,037.2,030.3,27.8,-000.6,0012.42,0007.93,0007.26
2023-09-12 12:08:00,SystemResetWarning,0835.1,5.00,000.00,028.8,027.2,000.0,037.2,030.3,27.8,-000.5,0012.84,0007.94,0007.29
2023-09-12 12:09:00,SystemResetWarning,0835.0,5.00,000.00,028.8,027.2,000.0,037.2,030.3,27.6,-000.5,0012.91,0007.96,0007.30
2023-09-12 12:10:00,SystemResetWarning,0834.5,5.00,000.00,028.8,027.2,000.0,037.2,030.3,27.4,-000.3,0012.83,0007.97,0007.32
2023-09-12 12:11:00,SystemResetWarning,0834.5,5.00,000.00,028.8,027.2,000.0,037.2,030.3,27.3,-000.4,0012.84,0007.96,0007.34
2023-09-12 12:12:00,SystemResetWarning,0834.5,5.00,000.00,028.8,027.2,000.0,037.2,030.3,27.6,-000.4,0012.77,0007.96,0007.37
2023-09-12 12:13:00,SystemResetWarning,0834.5,5.00,000.00,028.8,027.2,000.0,037.2,030.3,27.8,-000.6,0013.14,0007.95,0007.38
2023-09-12 12:14:00,SystemResetWarning,0834.5,5.00,000.00,028.8,027.2,000.0,037.2,030.3,27.8,-000.8,0013.97,0007.96,0007.37
2023-09-12 12:15:00,SystemResetWarning,0834.5,5.01,000.00,028.8,027.2,000.0,037.2,030.3,27.8,-000.9,0014.07,0007.99,0007.39
2023-09-12 12:16:00,SystemResetWarning,0834.5,5.00,000.00,028.8,027.3,000.0,037.2,030.3,27.9,-000.9,0014.10,0007.98,0007.40
2023-09-12 12:17:00,SystemResetWarning,0834.5,4.99,000.00,028.8,027.3,000.0,037.2,030.3,28.0,-000.9,0014.18,0007.98,0007.40
2023-09-12 12:18:00,SystemResetWarning,0834.5,5.00,000.00,028.8,027.3,000.0,037.2,030.3,28.1,-000.8,0014.03,0007.94,0007.37
2023-09-12 12:19:00,SystemResetWarning,0834.5,5.01,000.00,028.8,027.3,000.0,037.2,030.3,28.0,-001.2,0013.69,0007.94,0007.36
2023-09-12 12:20:00,SystemResetWarning,0834.5,5.00,000.00,028.8,027.3,000.0,037.2,030.3,28.1,-001.2,0013.79,0007.96,0007.35
2023-09-12 12:21:00,SystemResetWarning,0834.5,5.00,000.00,028.8,027.3,000.0,037.2,030.3,28.1,-001.4,0014.19,0007.99,0007.35
2023-09-12 12:22:00,SystemResetWarning,0834.4,5.01,000.00,028.8,027.3,000.0,037.2,030.3,28.2,-001.3,0014.20,0007.97,0007.32
2023-09-12 12:23:00,SystemResetWarning,0834.4,4.99,000.00,028.8,027.3,000.0,037.2,030.3,28.2,-001.3,0015.14,0007.98,0007.31
2023-09-12 12:24:00,SystemResetWarning,0834.4,5.00,000.00,028.8,027.3,000.0,037.2,030.4,28.2,-001.2,0015.58,0007.99,0007.29
2023-09-12 12:25:00,SystemResetWarning,0834.4,5.00,000.00,028.8,027.3,000.0,037.2,030.3,28.2,-001.2,0014.36,0007.96,0007.28
2023-09-12 12:26:00,SystemResetWarning,0834.4,5.00,000.00,028.8,027.3,000.0,037.2,030.3,28.2,-001.2,0014.12,0007.90,0007.26
2023-09-12 12:27:00,SystemResetWarning,0834.4,5.00,000.00,028.8,027.3,000.0,037.2,030.3,28.2,-001.2,0014.10,0007.89,0007.26
2023-09-12 12:28:00,SystemResetWarning,0834.4,5.00,000.00,028.8,027.3,000.0,037.2,030.3,28.2,-001.2,0014.25,0007.89,0007.27
2023-09-12 12:29:00,SystemResetWarning,0834.4,5.00,000.00,028.8,027.2,000.0,037.2,030.3,28.2,-001.3,0014.35,0007.90,0007.28
2023-09-12 12:30:00,SystemResetWarning,0834.4,5.00,000.00,028.8,027.2,000.0,037.1,030.3,28.2,-001.1,0014.27,0007.91,0007.30
2023-09-12 12:31:00,SystemResetWarning,0834.4,5.00,000.00,028.8,027.2,000.0,037.1,030.2,28.2,-000.9,0014.06,0007.88,0007.31
2023-09-12 12:32:00,SystemResetWarning,0834.4,5.00,000.00,028.8,027.2,000.0,037.1,030.3,28.1,-000.8,0013.74,0007.84,0007.31
2023-09-12 12:33:00,SystemResetWarning,0834.4,5.00,000.00,028.8,027.2,000.0,037.1,030.3,28.1,-000.8,0014.22,0007.86,0007.32
2023-09-12 12:34:00,SystemResetWarning,0834.4,5.00,000.00,028.8,027.3,000.0,037.1,030.3,28.1,-000.6,0013.50,0007.85,0007.30
2023-09-12 12:35:00,SystemResetWarning,0834.5,5.00,000.00,028.8,027.3,000.0,037.1,030.3,28.0,-000.5,0012.68,0007.83,0007.30
2023-09-12 12:36:00,SystemResetWarning,0834.5,4.99,000.00,028.8,027.3,000.0,037.1,030.2,28.0,-000.6,0012.72,0007.83,0007.30
2023-09-12 12:37:00,SystemResetWarning,0834.4,5.00,000.00,028.8,027.3,000.0,037.2,030.3,27.9,-000.6,0012.88,0007.85,0007.30
2023-09-12 12:38:00,SystemResetWarning,0834.5,5.00,000.00,028.8,027.3,000.0,037.2,030.3,27.9,-000.6,0012.92,0007.87,0007.29
2023-09-12 12:39:00,SystemResetWarning,0834.5,5.01,000.00,028.8,027.3,000.0,037.2,030.3,27.9,-000.7,0012.78,0007.86,0007.26
2023-09-12 12:40:00,SystemResetWarning,0834.5,5.01,000.00,028.8,027.3,000.0,037.2,030.3,27.9,-000.6,0012.64,0007.83,0007.24
2023-09-12 12:41:00,SystemResetWarning,0834.5,5.00,000.00,028.8,027.3,000.0,037.2,030.3,27.9,-000.5,0012.51,0007.79,0007.21
2023-09-12 12:42:00,SystemResetWarning,0834.4,5.00,000.00,028.8,027.3,000.0,037.1,030.3,27.9,-000.3,0012.49,0007.80,0007.20
2023-09-12 12:43:00,SystemResetWarning,0834.5,4.99,000.00,028.8,027.3,000.0,037.1,030.4,27.9,-000.2,0012.39,0007.77,0007.18
2023-09-12 12:44:00,SystemResetWarning,0834.5,5.00,000.00,028.8,027.3,000.0,037.2,030.3,27.8,-000.3,0012.26,0007.78,0007.18
2023-09-12 12:45:00,SystemResetWarning,0834.5,5.00,000.00,028.8,027.3,000.0,037.2,030.3,27.9,-000.5,0012.01,0007.75,0007.18
2023-09-12 12:46:00,SystemResetWarning,0834.5,5.00,000.00,028.8,027.3,000.0,037.2,030.3,27.9,-000.5,0012.06,0007.74,0007.16
2023-09-12 12:47:00,SystemResetWarning,0834.5,5.01,000.00,028.8,027.3,000.0,037.2,030.3,27.9,-000.6,0012.06,0007.72,0007.13
2023-09-12 12:48:00,SystemResetWarning,0834.5,5.01,000.00,028.8,027.3,000.0,037.2,030.4,27.9,-000.6,0011.97,0007.72,0007.14
2023-09-12 12:49:00,SystemResetWarning,0834.4,4.99,000.00,028.8,027.3,000.0,037.1,030.3,28.0,-000.4,0012.12,0007.71,0007.15
2023-09-12 12:50:00,SystemResetWarning,0834.5,4.99,000.00,028.8,027.3,000.0,037.2,030.3,28.0,-000.2,0012.08,0007.70,0007.17
2023-09-12 12:51:00,SystemResetWarning,0834.5,4.99,000.00,028.8,027.3,000.0,037.2,030.3,28.1,0000.0,0012.06,0007.68,0007.17
2023-09-12 12:52:00,SystemResetWarning,0834.5,5.01,000.00,028.8,027.3,000.0,037.2,030.3,28.1,-000.1,0012.19,0007.72,0007.20
2023-09-12 12:53:00,SystemResetWarning,0834.5,5.01,000.00,028.8,027.3,000.0,037.2,030.4,28.1,-000.5,0012.44,0007.73,0007.21
2023-09-12 12:54:00,SystemResetWarning,0834.5,5.00,000.00,028.8,027.3,000.0,037.2,030.4,28.1,-000.9,0013.03,0007.74,0007.23
2023-09-12 12:55:00,SystemResetWarning,0834.5,5.00,000.00,028.8,027.3,000.0,037.2,030.4,28.2,-001.0,0013.17,0007.75,0007.24
2023-09-12 12:56:00,SystemResetWarning,0834.5,4.99,000.00,028.8,027.3,000.0,037.2,030.4,28.3,-000.9,0013.44,0007.78,0007.27
2023-09-12 12:57:00,SystemResetWarning,0834.5,5.00,000.00,028.8,027.3,000.0,037.2,030.4,28.3,-000.9,0013.86,0007.81,0007.31
2023-09-12 12:58:00,SystemResetWarning,0834.5,5.00,000.00,028.8,027.3,000.0,037.2,030.4,28.4,-001.0,0013.97,0007.86,0007.36
2023-09-12 12:59:00,SystemResetWarning,0834.5,5.01,000.00,028.8,027.3,000.0,037.2,030.4,28.4,-000.9,0014.35,0007.90,0007.39
